Overview Statistics Trail Chart Weather Telemetry Raw packets
 

This is the latest recevied weather packets stored in our database for station/object Ostrach. If no packets are shown the sender has not sent any weather packets the latest 10 day(s).

<< 13 14 15 16 17 18 19 >>
Time Temp. Humidity Pressure Rain* Wind** Luminosity Snow
1788044531 16.11° C 83% 1013.8 hPa 0 mm - - -
1788042731 15.56° C 83% 1013.6 hPa 0 mm - - -
1788040930 15.56° C 85% 1013.7 hPa 0 mm - - -
1788039131 15.56° C 86% 1013.8 hPa 0 mm - - -
1788037331 15° C 86% 1013.8 hPa 0 mm - - -
1788035531 15.56° C 85% 1013.7 hPa 0 mm - - -
1788033731 15.56° C 84% 1013.7 hPa 0 mm - - -
1788031931 15.56° C 83% 1013.7 hPa 0 mm - - -
1788030132 16.67° C 80% 1013.3 hPa 0 mm - - -
1788028331 17.78° C 76% 1013 hPa 0 mm - - -
1788026531 20° C 69% 1012.7 hPa 0 mm - - -
1788024730 21.67° C 62% 1012.6 hPa 0 mm - - -
1788022930 21.67° C 58% 1012.7 hPa 0 mm - - -
1788021130 22.22° C 56% 1012.6 hPa 0 mm - - -
1788019330 23.33° C 52% 1012.8 hPa 0 mm - - -
1788017530 24.44° C 49% 1013 hPa 0 mm - - -
1788015731 22.78° C 53% 1013 hPa 0 mm - - -
1788013933 23.33° C 49% 1013.2 hPa 0 mm - - -
1788012130 24.44° C 50% 1013.2 hPa 0 mm - - -
1788010330 23.89° C 54% 1013.4 hPa 0 mm - - -
1788008530 23.33° C 54% 1013.4 hPa 0 mm - - -
1788006730 22.78° C 56% 1013.7 hPa 0 mm - - -
1788004930 23.33° C 55% 1014.1 hPa 0 mm - - -
1788003130 22.22° C 61% 1014.4 hPa 0 mm - - -
1788001329 22.22° C 63% 1014.7 hPa 0 mm - - -

* Rain since midnight (hover to see other rain measurements)
** Current wind speed in m/s (hover to see current wind gust speed)